Oxford, CT

6:37 AM EDT on March 25, 2017 (GMT -0400)
Waterbury-Oxford

Weather History for KOXC - March, 2011

Change the Weather History Date:

Tuesday, March 1, 2011

  Actual Average Record
Temperature  
Mean Temperature 30 °F -  
Max Temperature 35 °F 38 °F 59 °F (2004)
Min Temperature 24 °F 23 °F 6 °F (2014)
Degree Days  
Heating Degree Days 36    
Moisture  
Dew Point 11 °F    
Average Humidity 47    
Maximum Humidity 59    
Minimum Humidity 28    
Precipitation  
Precipitation 0.00 in - - ()
Sea Level Pressure  
Sea Level Pressure 30.12 in    
Wind  
Wind Speed 16 mph (NNW)    
Max Wind Speed 25 mph    
Max Gust Speed 34 mph    
Visibility 10 miles    
Events      
Averages and records for this station are not official NWS values.
T = Trace of Precipitation, MM = Missing Value Source: NWS Daily Summary

Daily Weather History Graph

Daily Weather History Graph

Search for Another Location

Airport or City:

Trip Planner

Search our weather history database for the weather conditions in past years. The results will help you decide how hot, cold, wet, or windy it might be!

Date:

Astronomy

Mar. 01, 2011 Rise Set
Actual Time 6:27 AM EST 5:42 PM EST
Civil Twilight 5:59 AM EST 6:10 PM EST
Nautical Twilight 5:27 AM EST 6:42 PM EST
Astronomical Twilight 4:55 AM EST 7:14 PM EST
Moon 4:35 AM EST (3/1) 2:54 PM EST (3/1)
Length of Visible Light 12h 10m
Length of Day
11h 15m
Waning Crescent, 9% of the Moon is Illuminated
Mar 1
Waning Crescent
Mar 4
New
Mar 12
First Quarter
Mar 19
Full
Mar 26
Last Quarter

Hourly Weather History & Observations

Time (EST) Temp. Windchill Dew Point Humidity Pressure Visibility Wind Dir Wind Speed Gust Speed Precip Events Conditions
12:15 AM 35.6 °F 23.4 °F 19.4 °F 52% 29.86 in 10.0 mi NNW 25.3 mph 34.5 mph N/A   Mostly Cloudy
12:35 AM 35.6 °F 25.2 °F 21.2 °F 56% 29.88 in 10.0 mi NNW 18.4 mph 25.3 mph N/A   Mostly Cloudy
12:55 AM 33.8 °F 22.2 °F 19.4 °F 56% 29.89 in 10.0 mi NNW 20.7 mph 28.8 mph N/A   Scattered Clouds
1:15 AM 33.8 °F 23.5 °F 19.4 °F 56% 29.91 in 10.0 mi NNW 16.1 mph 23.0 mph N/A   Partly Cloudy
1:35 AM 32.0 °F 19.2 °F 15.8 °F 51% 29.93 in 10.0 mi NNW 23.0 mph 33.4 mph N/A   Partly Cloudy
1:55 AM 30.2 °F 19.8 °F 14.0 °F 51% 29.97 in 10.0 mi NNW 13.8 mph 26.5 mph N/A   Clear
2:15 AM 30.2 °F 17.8 °F 12.2 °F 47% 29.97 in 10.0 mi North 19.6 mph 25.3 mph N/A   Partly Cloudy
2:35 AM 30.2 °F 18.5 °F 12.2 °F 47% 29.97 in 10.0 mi North 17.3 mph 24.2 mph N/A   Scattered Clouds
3:15 AM 28.4 °F 16.6 °F 12.2 °F 51% 29.97 in 10.0 mi NNW 16.1 mph 23.0 mph N/A   Clear
3:35 AM 28.4 °F 16.2 °F 12.2 °F 51% 29.98 in 10.0 mi NNW 17.3 mph 24.2 mph N/A   Clear
3:55 AM 28.4 °F 15.4 °F 12.2 °F 51% 30.00 in 10.0 mi NNW 19.6 mph 25.3 mph N/A   Clear
4:15 AM 28.4 °F 17.5 °F 12.2 °F 51% 30.01 in 10.0 mi NNW 13.8 mph 23.0 mph N/A   Clear
4:35 AM 28.4 °F 17.5 °F 14.0 °F 55% 30.01 in 10.0 mi NNW 13.8 mph 23.0 mph N/A   Clear
4:55 AM 28.4 °F 18.0 °F 14.0 °F 55% 30.03 in 10.0 mi NNW 12.7 mph 21.9 mph N/A   Clear
5:15 AM 28.4 °F 16.2 °F 12.2 °F 51% 30.04 in 10.0 mi North 17.3 mph 25.3 mph N/A   Clear
5:35 AM 28.4 °F 16.2 °F 12.2 °F 51% 30.06 in 10.0 mi NNW 17.3 mph 27.6 mph N/A   Clear
5:55 AM 28.4 °F 16.2 °F 10.4 °F 47% 30.07 in 10.0 mi NNW 17.3 mph 26.5 mph N/A   Clear
6:15 AM 26.6 °F 14.7 °F 10.4 °F 51% 30.10 in 10.0 mi NNW 15.0 mph 21.9 mph N/A   Clear
6:35 AM 26.6 °F 16.2 °F 8.6 °F 47% 30.11 in 10.0 mi NNW 11.5 mph 21.9 mph N/A   Clear
6:55 AM 26.6 °F 14.3 °F 8.6 °F 47% 30.14 in 10.0 mi NNW 16.1 mph 26.5 mph N/A   Clear
7:15 AM 26.6 °F 14.7 °F 6.8 °F 43% 30.15 in 10.0 mi NNW 15.0 mph 28.8 mph N/A   Clear
7:35 AM 26.6 °F 15.2 °F 6.8 °F 43% 30.18 in 10.0 mi NNW 13.8 mph 26.5 mph N/A   Clear
7:45 AM 26.6 °F 14.7 °F 6.8 °F 43% 30.18 in 10.0 mi NNW 15.0 mph 28.8 mph N/A   Clear
8:45 AM 26.6 °F 15.7 °F 5.0 °F 40% 30.23 in 10.0 mi North 12.7 mph 24.2 mph N/A   Clear
9:45 AM 28.4 °F 19.7 °F 6.8 °F 40% 30.25 in 10.0 mi NNW 9.2 mph 23.0 mph N/A   Clear
10:45 AM 30.2 °F 18.1 °F 6.8 °F 37% 30.24 in 10.0 mi North 18.4 mph 26.5 mph N/A   Clear
11:45 AM 33.8 °F 26.4 °F 6.8 °F 32% 30.24 in 10.0 mi NNW 9.2 mph 16.1 mph N/A   Clear
12:45 PM 33.8 °F 25.3 °F 6.8 °F 32% 30.24 in 10.0 mi NW 11.5 mph 17.3 mph N/A   Clear
3:45 PM 33.8 °F 26.4 °F 6.8 °F 32% 30.25 in 10.0 mi North 9.2 mph - N/A   Clear
4:45 PM 33.8 °F 27.0 °F 3.2 °F 28% 30.26 in 10.0 mi North 8.1 mph - N/A   Clear
5:45 PM 32.0 °F 26.4 °F 8.6 °F 38% 30.28 in 10.0 mi North 5.8 mph - N/A   Clear
6:45 PM 30.2 °F 24.3 °F 8.6 °F 40% 30.27 in 10.0 mi North 5.8 mph - N/A   Clear
7:45 PM 28.4 °F - 10.4 °F 47% 30.27 in 10.0 mi Calm Calm - N/A   Clear
9:15 PM 26.6 °F - 10.4 °F 51% 30.29 in 10.0 mi Calm Calm - N/A   Clear
9:35 PM 26.6 °F - 8.6 °F 47% 30.29 in 10.0 mi Calm Calm - N/A   Clear
9:55 PM 24.8 °F - 12.2 °F 59% 30.29 in 10.0 mi Calm Calm - N/A   Clear
10:15 PM 24.8 °F - 10.4 °F 54% 30.27 in 10.0 mi Calm Calm - N/A   Clear
10:35 PM 26.6 °F - 6.8 °F 43% 30.26 in 10.0 mi Calm Calm - N/A   Clear
11:35 PM 26.6 °F 22.6 °F 8.6 °F 47% 30.23 in 10.0 mi SSW 3.5 mph - N/A   Clear